Regional Weather Roundup
Issued by NWS

Home | Current Version | Previous Version | Text Only | Print | Product List | Glossary On
Versions: 1 2 3 4 5 6 7 8 9 10 11 12 13 14 15 16 17 18 19 20 21 22 23 24 25 26 27 28 29 30 31 32 33 34 35 36 37 38 39 40 41 42 43 44 45 46 47 48 49 50
000
ASUS43 KMPX 181201
RWRMN
WEATHER ROUNDUP FOR MINNESOTA
NATIONAL WEATHER SERVICE TWIN CITIES/CHANHASSEN MN
600 AM CST WED JAN 18 2017


NOTE: "FAIR" INDICATES FEW OR NO CLOUDS BELOW 12,000 FEET WITH NO
SIGNIFICANT WEATHER AND/OR OBSTRUCTIONS TO VISIBILITY. N/A MEANS
CURRENT SKY AND/OR WEATHER CONDITIONS ARE NOT AVAILABLE.

MNZ060>063-068>070-181300-
   Twin Cities Metro

CITY           SKY/WX    TMP DP  RH WIND       PRES   REMARKS
TWIN CITIES    CLEAR     28  24  85 S8        29.94F FOG     WCI  20
6HR MIN TEMP:  25; 6HR MAX TEMP:  30;

ST PAUL        CLOUDY    26  24  92 SE8       29.96F FOG     WCI  18
CRYSTAL        CLOUDY    28  22  78 S13G21    29.91F HAZE    WCI  17
BLAINE         CLOUDY    28  28 100 S14       29.91F WCI  17
LAKEVILLE      CLOUDY    27  27 100 S5        29.96R FOG     WCI  21
EDEN PRAIRIE   CLOUDY    28  24  85 S13       29.93S FOG     WCI  17
6HR MIN TEMP:  26; 6HR MAX TEMP:  30;

SOUTH ST PAUL  CLOUDY    27  25  95 S7        29.95S FOG     WCI  19
LAKE ELMO      FAIR      27  27 100 S10       29.95F WCI  17
$$
MNZ001>005-007-008-013>017-022>024-027-028-181300-
   Northwest Minnesota

CITY           SKY/WX    TMP DP  RH WIND       PRES   REMARKS
BEMIDJI        CLOUDY    26  20  76 SW5       29.71R WCI  21
HALLOCK        CLOUDY    18  16  93 S9        29.65R WCI   6
ROSEAU         CLOUDY    19  16  86 S6        29.65R WCI  11
WARROAD        CLOUDY    21  18  86 SW5       29.65S WCI  15
THIEF RVR FALL CLOUDY    21  17  84 SW10      29.70S WCI  10
CROOKSTON      CLOUDY    19  16  86 S16       29.71F WCI   5
FOSSTON        CLOUDY    21  18  86 S16       29.72F WCI   7
DETROIT LAKES  CLOUDY    27  23  86 SW6       29.77R WCI  20
MOORHEAD       CLOUDY    18  14  86 S7        29.79R WCI   8
PARK RAPIDS    CLOUDY    16  11  80 S7        29.75R WCI   6
MAHNOMEN       FAIR      20  17  87 S15       29.74R WCI   7
$$
MNZ006-009>011-018-025>026-181300-
   North Central Minnesota

CITY           SKY/WX    TMP DP  RH WIND       PRES   REMARKS
BAUDETTE       CLOUDY    22  16  78 SW6       29.66R WCI  14
FLAG ISLAND    CLOUDY    16  12  86 SE5       29.64R WCI   9
INTL FALLS     CLOUDY    24  16  71 SW7       29.68R WCI  16
6HR MIN TEMP:  23; 6HR MAX TEMP:  29;

WASKISH        CLOUDY    25  19  80 SW5       29.68S WCI  19
BIG FORK       CLOUDY    25  19  80 SW9       29.71R WCI  15
LONGVILLE      CLOUDY    21  19  93 S7        29.76S WCI  13
GRAND RAPIDS   CLOUDY    21  18  88 S7        29.78R WCI  12
CRANE LAKE     CLOUDY    25  18  74 S5        29.72S WCI  19
ORR            CLOUDY    23  16  74 CALM      29.68S
COOK           CLOUDY    27  19  74 SW9G16    29.71S WCI  17
WALKER         FAIR      25  19  80 SW7       29.73S WCI  17
$$
MNZ012-019>021-037-181300-
   Northeast Minnesota

CITY           SKY/WX    TMP DP  RH WIND       PRES   REMARKS
DULUTH         CLOUDY    26  25  96 SW17G24   29.76F FOG     WCI  13
6HR MIN TEMP:  23; 6HR MAX TEMP:  26;

ELY            CLOUDY    25  19  80 SW8       29.71R WCI  16
HIBBING        CLOUDY    21  19  92 S6        29.75R WCI  13
EVELETH        CLOUDY    24  19  83 SW10      29.76R WCI  13
DULUTH HARBOR  CLOUDY    27  23  86 CALM      29.81F
TWO HARBORS    CLEAR     25  19  80 SW8       29.75F WCI  16
SILVER BAY     CLEAR     23  21  93 SW5       29.74F WCI  17
GRAND MARAIS     N/A     32  28  85 W9G18     29.76F WCI  24
G MARAIS ARPRT CLOUDY    21  19  93 S6        29.70S WCI  14
$$
MNZ029>031-032-039>041-046>048-054>057-064-181300-
   West Central Minnesota

CITY           SKY/WX    TMP DP  RH WIND       PRES   REMARKS
FERGUS FALLS   CLOUDY    21  18  86 S8        29.84R WCI  12
WHEATON        CLOUDY    30  27  86 CALM      29.82R
MORRIS         CLOUDY    19  18  93 S9        29.80R WCI   9
ALEXANDRIA     CLOUDY    26  22  84 S14       29.79F WCI  14
ELBOW LAKE     FAIR      21  19  92 SE8       29.81R FOG     WCI  11
WADENA         CLOUDY    21  19  93 CALM      29.76R
GLENWOOD       CLOUDY    21  21 100 S10       29.82S WCI  10
APPLETON       CLOUDY    28  23  80 S8        29.82F WCI  20
ORTONVILLE     CLOUDY    28  21  74 S7        29.80S WCI  21
MADISON        CLOUDY    28  25  86 S10       29.83F WCI  19
WILLMAR        FAIR      25  25 100 CALM      29.86F
$$
MNZ033>034-036-042>043-049>051-058-059-181300-
   Central Minnesota

CITY           SKY/WX    TMP DP  RH WIND       PRES   REMARKS
ST CLOUD       CLOUDY    23  21  92 S9        29.86F WCI  13
6HR MIN TEMP:  19; 6HR MAX TEMP:  23;

SAUK CENTRE    FAIR      23  20  91 S6        29.82F WCI  15
PAYNESVILLE    CLOUDY    25  25 100 S12       29.85S WCI  14
AITKIN         CLOUDY    27  19  74 S7        29.77F WCI  19
PINE RIVER     CLOUDY    16  16 100 CALM      29.82R
BRAINERD       CLOUDY    22  20  92 S8        29.80F WCI  12
STAPLES        CLOUDY    19  18  93 S3        29.78S
LONG PRAIRIE   FAIR      23  21  93 S9        29.81S WCI  13
LITTLE FALLS   CLOUDY    23  19  86 S8        29.83F WCI  14
LITCHFIELD     CLOUDY    25  23  93 S3        29.87F
BUFFALO        CLOUDY    27  24  87 S10G16    29.90F WCI  17
MAPLE LAKE     CLOUDY    26  25  96 S10G16    29.88F FOG     WCI  17
HUTCHINSON     CLOUDY    25  24  97 S6        29.91S WCI  18
$$
MNZ037-044-045-052-053-181300-
   East Central Minnesota

CITY           SKY/WX    TMP DP  RH WIND       PRES   REMARKS
PRINCETON      CLOUDY    27  25  93 S7        29.87F WCI  19
MORA           CLOUDY    25  23  93 SW6       29.89R WCI  18
CAMBRIDGE      CLOUDY    28  21  74 S8        29.87R WCI  20
RUSH CITY      CLOUDY    27  23  86 S7        29.89R WCI  19
MOOSE LAKE     CLOUDY    28  27  93 SW12G18   29.80F WCI  18
HINCKLEY       FAIR      27  27 100 S5        29.88R FOG     WCI  21
CLOQUET        CLOUDY    27  25  93 S14       29.77F WCI  15
MCGREGOR       CLOUDY    28  25  86 S10       29.79F WCI  19
$$
MNZ071>073-080-081-089-090-097-098-181300-
   Southwest Minnesota

CITY           SKY/WX    TMP DP  RH WIND       PRES   REMARKS
MONTEVIDEO     CLOUDY    27  27 100 SW12      29.86S WCI  16
GRANITE FALLS  CLOUDY    25  23  91 S14       29.87F WCI  13
CANBY            N/A     33  26  75 CALM      29.83F
MARSHALL       CLOUDY    29  25  85 SW10      29.86F WCI  20
REDWOOD FALLS  CLOUDY    26  22  84 S13       29.89F WCI  15
OLIVIA         CLOUDY    27  23  86 S8        29.87F WCI  18
PIPESTONE      CLOUDY    25  23  93 SW9       29.89S WCI  15
WINDOM         CLOUDY    28  27  93 SW8       29.92R WCI  20
WORTHINGTON    CLOUDY    28  26  92 SW16      29.92S WCI  16
JACKSON        CLOUDY    28  27  93 SW9       29.93R WCI  20
TRACY          CLOUDY    31  27  87 SW18G26   29.87F WCI  19
SLAYTON        CLOUDY    26  25  95 SW18      29.89F WCI  13
$$
MNZ065>067-074>077-082>085-091>093-181300-
   South Central Minnesota

CITY           SKY/WX    TMP DP  RH WIND       PRES   REMARKS
MANKATO        CLOUDY    28  26  92 S8        29.96S WCI  20
NEW ULM        CLOUDY    21  19  93 S7        29.93S WCI  13
ST JAMES       CLOUDY    27  27 100 S8        29.96R WCI  18
FAIRMONT       CLEAR     30  27  88 S17       29.95F WCI  18
GLENCOE        CLOUDY    28  27  96 S9        29.91F WCI  19
FARIBAULT      CLOUDY    27  27 100 S6        29.97R WCI  20
OWATONNA       CLEAR     27  25  93 S13       29.96S WCI  16
WASECA         CLEAR     28  27  93 S13       29.98S FOG     WCI  18
ALBERT LEA     CLOUDY    28  27  93 S6        29.98F FOG     WCI  22
$$
MNZ078>079-086>088-094>096-181300-
   Southeast Minnesota

CITY           SKY/WX    TMP DP  RH WIND       PRES   REMARKS
ROCHESTER      CLOUDY    26  25  96 S18       29.99F FOG     WCI  13
6HR MIN TEMP:  26; 6HR MAX TEMP:  29;

RED WING       CLOUDY    28  25  86 S6        29.99S WCI  22
STANTON        CLOUDY    28  24  86 S8        29.96R WCI  20
DODGE CENTER   CLOUDY    27  27 100 S7        29.97F FOG     WCI  19
WINONA         CLOUDY    32  28  86 S6        30.04S WCI  26
AUSTIN         CLOUDY    27  27 100 S10       30.00F FOG     WCI  17
PRESTON        CLOUDY    27  26  96 SW14      30.01F FOG     WCI  15
$$
ABBREVIATIONS USED IN REMARKS
   TC - TEMPERATURES IN CELSIUS
  WCI - WIND CHILL INDEX
   HX - HEAT INDEX
  VSB - VISIBILITY
$$



USA.gov is the U.S. government's official web portal to all federal, state and local government web resources and services.